Meteo Giornale » Osservazioni meteo Francia » Nizza

ore: 10:30 - Osservazioni Meteo Nizza
Lat. 43° 39' N Lon. 7° 12' E Alt. 4 metri s.l.m.

molto_nuvoloso Europe/Paris

11 °C

Molto Nuvoloso

Temp. 24 Ore

10 °C

15 °C

Nord-Ovest

16.7 Km/h

Dew point 4 °C

Umidità 61 %

Visibilità  10 Km

Il sole sorge alle ore 07:53

Il sole tramonta alle ore 17:32

Data e Ora Cielo e Fenomeni T °C DP °C Um. % Pres. hPa Vis. km Vento km/h
Oggi h: 10:30 molto_nuvoloso Molto Nuvoloso 11 4 61 1024 10 NO 16.7
Oggi h: 10:00 molto_nuvoloso Molto Nuvoloso 11 4 61 1024 10 N/NO 18.5
Oggi h: 09:30 molto_nuvoloso Molto Nuvoloso 10 4 66 1024 10 N/NO 16.7
Oggi h: 09:00 molto_nuvoloso Molto Nuvoloso 10 4 66 1024 10 N/NO 18.5
Oggi h: 08:30 molto_nuvoloso Molto Nuvoloso 10 4 66 1024 10 N/NO 18.5
Oggi h: 08:00 molto_nuvoloso Molto Nuvoloso 10 4 66 1024 10 N/NO 16.7
Oggi h: 07:00 molto_nuvoloso Molto Nuvoloso 10 4 66 1024 10 NO 14.8
Oggi h: 06:30 molto_nuvoloso Molto Nuvoloso 10 4 66 1024 10 N/NO 18.5
Oggi h: 06:00 molto_nuvoloso Molto Nuvoloso 10 4 66 1024 10 N/NO 14.8
Oggi h: 05:30 sereno Sereno 10 4 66 1024 10 N/NO 18.5
Oggi h: 05:00 sereno Sereno 10 5 71 1024 10 N/NO 20.3
Oggi h: 04:30 sereno Sereno 10 5 71 1025 10 N/NO 18.5
Oggi h: 04:00 sereno Sereno 10 5 71 1025 10 NO 20.3
Oggi h: 03:30 sereno Sereno 10 5 71 1025 10 N/NO 20.3
Oggi h: 03:00 sereno Sereno 10 5 71 1025 10 N/NO 16.7
Oggi h: 02:30 sereno Sereno 10 5 71 1025 10 N/NO 16.7
Oggi h: 02:00 sereno Sereno 10 5 71 1026 10 NO 16.7
Oggi h: 01:30 sereno Sereno 10 5 71 1026 10 N/NO 13
Oggi h: 01:00 sereno Sereno 11 5 66 1026 10 NO 13
Oggi h: 00:30 sereno Sereno 10 5 71 1026 10 NO 14.8
Oggi h: 00:00 sereno Sereno 10 5 71 1026 10 N/NO 14.8
Ieri h: 23:30 sereno Sereno 10 5 71 1026 10 N/NO 14.8
Ieri h: 23:00 sereno Sereno 10 5 71 1027 10 NO 14.8
Ieri h: 22:30 sereno Sereno 10 5 71 1026 10 N/NO 14.8
Ieri h: 22:00 sereno Sereno 10 5 71 1027 10 N/NO 13
Ieri h: 21:30 sereno Sereno 10 5 71 1027 10 NO 14.8
Ieri h: 21:00 sereno Sereno 11 6 71 1027 10 NO 16.7
Ieri h: 20:30 sereno Sereno 11 5 66 1027 10 N/NO 13
Ieri h: 20:00 sereno Sereno 12 5 62 1027 10 N 7.4
Ieri h: 19:30 nuvoloso Nuvoloso 14 9 71 1026 10 E 18.5
Ieri h: 19:00 nuvoloso Nuvoloso 14 9 71 1026 10 E 25.9
Ieri h: 18:30 poco_nuvoloso Poco Nuvoloso 14 9 71 1026 10 E 20.3
Ieri h: 18:00 poco_nuvoloso Poco Nuvoloso 14 10 76 1026 10 E/NE 22.2
Ieri h: 17:30 poco_nuvoloso Poco Nuvoloso 14 9 71 1026 10 E 25.9
Ieri h: 17:00 poco_nuvoloso Poco Nuvoloso 14 9 71 1026 10 E 25.9
Ieri h: 16:30 poco_nuvoloso Poco Nuvoloso 14 9 71 1026 10 E 31.5
Ieri h: 15:30 poco_nuvoloso Poco Nuvoloso 15 9 67 1026 10 E 38.8
Ieri h: 15:00 poco_nuvoloso Poco Nuvoloso 15 9 67 1026 10 E 38.8
Ieri h: 14:30 poco_nuvoloso Poco Nuvoloso 15 9 67 1026 10 E 40.7
Ieri h: 14:00 poco_nuvoloso Poco Nuvoloso 15 10 72 1026 10 E 35.2
Ieri h: 13:30 poco_nuvoloso Poco Nuvoloso 15 10 72 1026 10 E 40.7
Ieri h: 13:00 poco_nuvoloso Poco Nuvoloso 15 10 72 1027 10 E 40.7
Ieri h: 12:30 poco_nuvoloso Poco Nuvoloso 15 10 72 1027 10 E 44.4
Ieri h: 12:00 poco_nuvoloso Poco Nuvoloso 15 10 72 1028 10 E 40.7
Ieri h: 11:30 poco_nuvoloso Poco Nuvoloso 15 10 72 1028 10 E 44.4
Ieri h: 11:00 poco_nuvoloso Poco Nuvoloso 15 10 72 1027 10 E 44.4
Ieri h: 10:30 poco_nuvoloso Poco Nuvoloso 15 9 67 1027 10 E 40.7
Ieri h: 10:00 poco_nuvoloso Poco Nuvoloso 14 9 71 1027 10 E/NE 29.6